Time,TemperatureF,DewpointF,PressureIn,WindDirection,WindDirectionDegrees,WindSpeedMPH,WindSpeedGustMPH,Humidity,HourlyPrecipIn,Conditions,Clouds,dailyrainin,SolarRadiationWatts/m^2,SoftwareType,DateUTC
2013-05-13 00:00:00,40.4,33.1,30.05,NW,311,2.0,2.0,75,0.00,,,0.02,0,Wunderground v.1.15,2013-05-13 04:00:00,
2013-05-13 00:02:00,40.5,33.2,30.06,NW,311,1.0,2.0,75,0.00,,,0.02,0,Wunderground v.1.15,2013-05-13 04:02:00,
2013-05-13 00:04:00,40.5,33.2,30.06,NW,311,1.0,2.0,75,0.00,,,0.02,0,Wunderground v.1.15,2013-05-13 04:04:00,
2013-05-13 00:06:00,40.4,33.1,30.06,NW,311,1.0,2.0,75,0.00,,,0.02,0,Wunderground v.1.15,2013-05-13 04:06:00,
2013-05-13 00:12:00,40.4,33.8,30.06,WNW,290,0.0,1.0,77,0.00,,,0.00,0,Wunderground v.1.15,2013-05-13 04:12:00,
2013-05-13 00:18:00,40.5,33.5,30.06,WSW,257,1.0,2.0,76,0.00,,,0.00,0,Wunderground v.1.15,2013-05-13 04:18:00,
2013-05-13 00:24:00,40.9,33.6,30.05,SW,234,1.0,2.0,75,0.00,,,0.00,0,Wunderground v.1.15,2013-05-13 04:24:00,
2013-05-13 00:30:00,41.0,33.7,30.06,WNW,301,3.0,4.0,75,0.00,,,0.00,0,Wunderground v.1.15,2013-05-13 04:30:00,
2013-05-13 00:36:00,40.9,33.6,30.06,NNW,340,2.0,5.0,75,0.00,,,0.00,0,Wunderground v.1.15,2013-05-13 04:36:00,
2013-05-13 00:42:00,40.8,33.5,30.06,West,270,2.0,5.0,75,0.00,,,0.00,0,Wunderground v.1.15,2013-05-13 04:42:00,
2013-05-13 00:44:00,40.7,33.7,30.06,WNW,285,2.0,6.0,76,0.00,,,0.00,0,Wunderground v.1.15,2013-05-13 04:44:00,
2013-05-13 00:50:00,40.5,33.9,30.07,WNW,292,2.0,2.0,77,0.00,,,0.00,0,Wunderground v.1.15,2013-05-13 04:50:00,
2013-05-13 00:56:00,40.5,34.2,30.07,WSW,254,2.0,5.0,78,0.00,,,0.00,0,Wunderground v.1.15,2013-05-13 04:56:00,
2013-05-13 01:02:00,40.6,34.0,30.06,West,259,4.0,7.0,77,0.00,,,0.00,0,Wunderground v.1.15,2013-05-13 05:02:00,
2013-05-13 01:08:00,40.6,33.6,30.07,NW,321,6.0,9.0,76,0.00,,,0.00,0,Wunderground v.1.15,2013-05-13 05:08:00,
2013-05-13 01:14:00,40.4,33.8,30.07,WNW,286,5.0,6.0,77,0.00,,,0.00,0,Wunderground v.1.15,2013-05-13 05:14:00,
2013-05-13 01:20:00,40.1,33.8,30.07,NW,315,5.0,8.0,78,0.00,,,0.00,0,Wunderground v.1.15,2013-05-13 05:20:00,
2013-05-13 01:26:00,39.8,33.8,30.07,NW,308,5.0,11.0,79,0.00,,,0.00,0,Wunderground v.1.15,2013-05-13 05:26:00,
2013-05-13 01:32:00,39.6,33.6,30.07,NW,317,6.0,6.0,79,0.00,,,0.00,0,Wunderground v.1.15,2013-05-13 05:32:00,
2013-05-13 01:38:00,39.3,33.6,30.07,NW,326,5.0,6.0,80,0.00,,,0.00,0,Wunderground v.1.15,2013-05-13 05:38:00,
2013-05-13 01:44:00,39.1,33.5,30.07,SW,230,3.0,5.0,80,0.00,,,0.00,0,Wunderground v.1.15,2013-05-13 05:44:00,
2013-05-13 01:50:00,38.8,32.2,30.07,NW,306,4.0,5.0,77,0.00,,,0.00,0,Wunderground v.1.15,2013-05-13 05:50:00,
2013-05-13 01:56:00,38.5,31.9,30.07,WNW,301,4.0,5.0,77,0.00,,,0.00,0,Wunderground v.1.15,2013-05-13 05:56:00,
2013-05-13 02:02:00,38.3,31.7,30.07,West,273,3.0,5.0,77,0.00,,,0.00,0,Wunderground v.1.15,2013-05-13 06:02:00,
2013-05-13 02:08:00,38.3,32.0,30.07,West,280,3.0,5.0,78,0.00,,,0.00,0,Wunderground v.1.15,2013-05-13 06:08:00,
2013-05-13 02:14:00,38.1,31.8,30.07,West,271,2.0,5.0,78,0.00,,,0.00,0,Wunderground v.1.15,2013-05-13 06:14:00,
2013-05-13 02:20:00,38.0,32.1,30.07,West,266,1.0,1.0,79,0.00,,,0.00,0,Wunderground v.1.15,2013-05-13 06:20:00,
2013-05-13 02:26:00,37.5,31.6,30.07,West,266,0.0,5.0,79,0.00,,,0.00,0,Wunderground v.1.15,2013-05-13 06:26:00,
2013-05-13 02:32:00,37.2,31.6,30.07,NW,307,0.0,5.0,80,0.00,,,0.00,0,Wunderground v.1.15,2013-05-13 06:32:00,
2013-05-13 02:38:00,37.1,31.8,30.07,West,279,1.0,5.0,81,0.00,,,0.00,0,Wunderground v.1.15,2013-05-13 06:38:00,
2013-05-13 02:44:00,36.8,31.8,30.06,WNW,301,1.0,5.0,82,0.00,,,0.00,0,Wunderground v.1.15,2013-05-13 06:44:00,
2013-05-13 02:50:00,36.3,31.3,30.06,WNW,301,0.0,5.0,82,0.00,,,0.00,0,Wunderground v.1.15,2013-05-13 06:50:00,
2013-05-13 02:56:00,35.9,31.2,30.06,WNW,301,0.0,5.0,83,0.00,,,0.00,0,Wunderground v.1.15,2013-05-13 06:56:00,
2013-05-13 03:02:00,35.3,30.9,30.06,WNW,301,0.0,5.0,84,0.00,,,0.00,0,Wunderground v.1.15,2013-05-13 07:02:00,
2013-05-13 03:08:00,34.6,30.8,30.06,WNW,301,0.0,5.0,86,0.00,,,0.00,0,Wunderground v.1.15,2013-05-13 07:08:00,
2013-05-13 03:14:00,34.1,30.9,30.06,WNW,301,0.0,5.0,88,0.00,,,0.00,0,Wunderground v.1.15,2013-05-13 07:14:00,
2013-05-13 03:20:00,33.7,30.5,30.07,WNW,301,0.0,5.0,88,0.00,,,0.00,0,Wunderground v.1.15,2013-05-13 07:20:00,
2013-05-13 03:26:00,33.4,30.5,30.07,WNW,301,0.0,5.0,89,0.00,,,0.00,0,Wunderground v.1.15,2013-05-13 07:26:00,
2013-05-13 03:32:00,33.2,30.6,30.07,WNW,301,0.0,5.0,90,0.00,,,0.00,0,Wunderground v.1.15,2013-05-13 07:32:00,
2013-05-13 03:38:00,33.1,30.8,30.07,WNW,301,0.0,5.0,91,0.00,,,0.00,0,Wunderground v.1.15,2013-05-13 07:38:00,
2013-05-13 03:44:00,33.0,30.7,30.07,WNW,301,0.0,5.0,91,0.00,,,0.00,0,Wunderground v.1.15,2013-05-13 07:44:00,
2013-05-13 03:50:00,32.9,30.6,30.07,WNW,301,0.0,5.0,91,0.00,,,0.00,0,Wunderground v.1.15,2013-05-13 07:50:00,
2013-05-13 03:56:00,32.8,30.7,30.07,WNW,301,0.0,5.0,92,0.00,,,0.00,0,Wunderground v.1.15,2013-05-13 07:56:00,
2013-05-13 04:02:00,32.6,30.5,30.08,WNW,301,0.0,5.0,92,0.00,,,0.00,0,Wunderground v.1.15,2013-05-13 08:02:00,
2013-05-13 04:08:00,32.3,30.2,30.08,WNW,301,0.0,5.0,92,0.00,,,0.00,0,Wunderground v.1.15,2013-05-13 08:08:00,
2013-05-13 04:14:00,32.1,30.0,30.08,WNW,301,0.0,5.0,92,0.00,,,0.00,0,Wunderground v.1.15,2013-05-13 08:14:00,
2013-05-13 04:20:00,32.1,30.3,30.08,WNW,301,0.0,5.0,93,0.00,,,0.00,0,Wunderground v.1.15,2013-05-13 08:20:00,
2013-05-13 04:26:00,32.1,30.3,30.08,WNW,301,0.0,5.0,93,0.00,,,0.00,0,Wunderground v.1.15,2013-05-13 08:26:00,
2013-05-13 04:32:00,32.1,30.3,30.08,WNW,301,0.0,5.0,93,0.00,,,0.00,0,Wunderground v.1.15,2013-05-13 08:32:00,
2013-05-13 04:38:00,32.1,30.3,30.08,WNW,301,0.0,5.0,93,0.00,,,0.00,0,Wunderground v.1.15,2013-05-13 08:38:00,
2013-05-13 04:44:00,32.2,30.7,30.08,WNW,301,0.0,5.0,94,0.00,,,0.00,0,Wunderground v.1.15,2013-05-13 08:44:00,
2013-05-13 04:50:00,32.2,30.7,30.08,WNW,301,0.0,5.0,94,0.00,,,0.00,0,Wunderground v.1.15,2013-05-13 08:50:00,
2013-05-13 04:56:00,32.1,30.6,30.09,WNW,301,0.0,5.0,94,0.00,,,0.00,0,Wunderground v.1.15,2013-05-13 08:56:00,
2013-05-13 05:02:00,32.0,30.5,30.09,WNW,301,0.0,5.0,94,0.00,,,0.00,0,Wunderground v.1.15,2013-05-13 09:02:00,
2013-05-13 05:08:00,32.3,30.8,30.09,WNW,301,0.0,5.0,94,0.00,,,0.00,0,Wunderground v.1.15,2013-05-13 09:08:00,
2013-05-13 05:14:00,32.5,31.0,30.09,NNW,335,0.0,5.0,94,0.00,,,0.00,0,Wunderground v.1.15,2013-05-13 09:14:00,
2013-05-13 05:20:00,32.4,30.6,30.09,NNW,335,0.0,5.0,93,0.00,,,0.00,0,Wunderground v.1.15,2013-05-13 09:20:00,
2013-05-13 05:26:00,32.3,30.5,30.09,NNW,335,0.0,5.0,93,0.00,,,0.00,0,Wunderground v.1.15,2013-05-13 09:26:00,
2013-05-13 05:32:00,31.6,29.8,30.09,NNW,335,0.0,5.0,93,0.00,,,0.00,0,Wunderground v.1.15,2013-05-13 09:32:00,
2013-05-13 05:38:00,31.2,29.7,30.09,NNW,335,0.0,5.0,94,0.00,,,0.00,0,Wunderground v.1.15,2013-05-13 09:38:00,
2013-05-13 05:44:00,31.2,29.7,30.09,NNW,335,1.0,5.0,94,0.00,,,0.00,0,Wunderground v.1.15,2013-05-13 09:44:00,
2013-05-13 05:50:00,31.2,29.7,30.09,NNW,335,1.0,1.0,94,0.00,,,0.00,0,Wunderground v.1.15,2013-05-13 09:50:00,
2013-05-13 05:56:00,30.9,29.4,30.09,NNW,335,1.0,5.0,94,0.00,,,0.00,0,Wunderground v.1.15,2013-05-13 09:56:00,
2013-05-13 06:02:00,30.7,29.2,30.09,NNW,335,0.0,5.0,94,0.00,,,0.00,5,Wunderground v.1.15,2013-05-13 10:02:00,
2013-05-13 06:08:00,31.0,29.5,30.09,NNW,335,0.0,5.0,94,0.00,,,0.00,7,Wunderground v.1.15,2013-05-13 10:08:00,
2013-05-13 06:14:00,30.7,29.2,30.10,NNW,335,0.0,5.0,94,0.00,,,0.00,16,Wunderground v.1.15,2013-05-13 10:14:00,
2013-05-13 06:20:00,30.5,29.0,30.10,NNW,335,0.0,5.0,94,0.00,,,0.00,18,Wunderground v.1.15,2013-05-13 10:20:00,
2013-05-13 06:26:00,30.4,29.1,30.10,NNW,335,0.0,5.0,95,0.00,,,0.00,21,Wunderground v.1.15,2013-05-13 10:26:00,
2013-05-13 06:32:00,30.5,29.2,30.10,NNW,335,0.0,5.0,95,0.00,,,0.00,32,Wunderground v.1.15,2013-05-13 10:32:00,
2013-05-13 06:38:00,30.6,29.3,30.11,NNW,335,0.0,5.0,95,0.00,,,0.00,26,Wunderground v.1.15,2013-05-13 10:38:00,
2013-05-13 06:44:00,30.6,29.3,30.11,NNW,335,0.0,5.0,95,0.00,,,0.00,39,Wunderground v.1.15,2013-05-13 10:44:00,
2013-05-13 06:50:00,31.1,29.8,30.11,NNW,335,0.0,5.0,95,0.00,,,0.00,40,Wunderground v.1.15,2013-05-13 10:50:00,
2013-05-13 06:56:00,31.6,30.3,30.11,NNW,335,0.0,5.0,95,0.00,,,0.00,33,Wunderground v.1.15,2013-05-13 10:56:00,
2013-05-13 07:02:00,31.7,30.4,30.11,NNW,335,0.0,5.0,95,0.00,,,0.00,33,Wunderground v.1.15,2013-05-13 11:02:00,
2013-05-13 07:08:00,32.1,30.8,30.12,NNW,335,0.0,5.0,95,0.00,,,0.00,35,Wunderground v.1.15,2013-05-13 11:08:00,
2013-05-13 07:14:00,32.8,31.3,30.12,NNW,335,0.0,5.0,94,0.00,,,0.00,37,Wunderground v.1.15,2013-05-13 11:14:00,
2013-05-13 07:20:00,33.4,31.3,30.12,SW,234,0.0,5.0,92,0.00,,,0.00,39,Wunderground v.1.15,2013-05-13 11:20:00,
2013-05-13 07:26:00,34.2,31.8,30.12,SW,234,0.0,5.0,91,0.00,,,0.00,127,Wunderground v.1.15,2013-05-13 11:26:00,
2013-05-13 07:32:00,34.9,32.0,30.12,SW,234,0.0,5.0,89,0.00,,,0.00,216,Wunderground v.1.15,2013-05-13 11:32:00,
2013-05-13 07:38:00,35.9,31.8,30.12,West,265,1.0,5.0,85,0.00,,,0.00,239,Wunderground v.1.15,2013-05-13 11:38:00,
2013-05-13 07:44:00,36.6,31.6,30.12,SSW,208,1.0,5.0,82,0.00,,,0.00,257,Wunderground v.1.15,2013-05-13 11:44:00,
2013-05-13 07:50:00,37.2,31.3,30.13,NNW,340,1.0,5.0,79,0.00,,,0.00,279,Wunderground v.1.15,2013-05-13 11:50:00,
2013-05-13 07:56:00,37.5,30.3,30.13,WSW,244,3.0,5.0,75,0.00,,,0.00,299,Wunderground v.1.15,2013-05-13 11:56:00,
2013-05-13 08:02:00,38.0,30.4,30.13,SW,230,4.0,5.0,74,0.00,,,0.00,343,Wunderground v.1.15,2013-05-13 12:02:00,
2013-05-13 08:08:00,38.5,29.9,30.13,WNW,296,4.0,7.0,71,0.00,,,0.00,503,Wunderground v.1.15,2013-05-13 12:08:00,
2013-05-13 08:14:00,38.5,29.2,30.14,WNW,303,4.0,5.0,69,0.00,,,0.00,171,Wunderground v.1.15,2013-05-13 12:14:00,
2013-05-13 08:20:00,38.6,29.3,30.14,WNW,284,4.0,4.0,69,0.00,,,0.00,160,Wunderground v.1.15,2013-05-13 12:20:00,
2013-05-13 08:26:00,38.4,29.1,30.14,SW,222,4.0,6.0,69,0.00,,,0.00,146,Wunderground v.1.15,2013-05-13 12:26:00,
2013-05-13 08:32:00,38.5,28.5,30.15,West,275,4.0,10.0,67,0.00,,,0.00,350,Wunderground v.1.15,2013-05-13 12:32:00,
2013-05-13 08:38:00,38.8,28.0,30.15,WNW,290,6.0,13.0,65,0.00,,,0.00,461,Wunderground v.1.15,2013-05-13 12:38:00,
2013-05-13 08:44:00,39.2,28.0,30.15,WSW,254,8.0,8.0,64,0.00,,,0.00,520,Wunderground v.1.15,2013-05-13 12:44:00,
2013-05-13 08:50:00,39.5,27.9,30.15,NW,309,7.0,11.0,63,0.00,,,0.00,519,Wunderground v.1.15,2013-05-13 12:50:00,
2013-05-13 08:56:00,39.9,28.7,30.15,WSW,250,6.0,11.0,64,0.00,,,0.00,598,Wunderground v.1.15,2013-05-13 12:56:00,
2013-05-13 09:02:00,40.2,27.4,30.15,NW,309,7.0,7.0,60,0.00,,,0.00,649,Wunderground v.1.15,2013-05-13 13:02:00,
2013-05-13 09:08:00,40.3,27.9,30.15,NW,317,7.0,11.0,61,0.00,,,0.00,214,Wunderground v.1.15,2013-05-13 13:08:00,
2013-05-13 09:14:00,40.1,26.9,30.15,NW,324,6.0,10.0,59,0.00,,,0.00,670,Wunderground v.1.15,2013-05-13 13:14:00,
2013-05-13 09:20:00,40.9,27.7,30.16,NNE,15,8.0,8.0,59,0.00,,,0.00,638,Wunderground v.1.15,2013-05-13 13:20:00,
2013-05-13 09:26:00,41.2,27.1,30.15,NNW,333,7.0,15.0,57,0.00,,,0.00,780,Wunderground v.1.15,2013-05-13 13:26:00,
2013-05-13 09:32:00,41.0,26.1,30.15,West,278,8.0,8.0,55,0.00,,,0.00,179,Wunderground v.1.15,2013-05-13 13:32:00,
2013-05-13 09:38:00,42.0,27.9,30.15,WNW,289,6.0,8.0,57,0.00,,,0.00,737,Wunderground v.1.15,2013-05-13 13:38:00,
2013-05-13 09:44:00,41.9,26.0,30.15,West,271,6.0,8.0,53,0.00,,,0.00,717,Wunderground v.1.15,2013-05-13 13:44:00,
2013-05-13 09:50:00,41.4,25.5,30.15,SW,225,7.0,7.0,53,0.00,,,0.00,343,Wunderground v.1.15,2013-05-13 13:50:00,
2013-05-13 09:56:00,41.1,25.7,30.16,NW,321,9.0,9.0,54,0.00,,,0.00,257,Wunderground v.1.15,2013-05-13 13:56:00,
2013-05-13 10:02:00,40.8,26.3,30.16,NW,313,6.0,7.0,56,0.00,,,0.00,267,Wunderground v.1.15,2013-05-13 14:02:00,
2013-05-13 10:08:00,40.9,25.5,30.16,WNW,297,4.0,7.0,54,0.00,,,0.00,279,Wunderground v.1.15,2013-05-13 14:08:00,
2013-05-13 10:14:00,40.9,24.6,30.16,WNW,299,6.0,8.0,52,0.00,,,0.00,295,Wunderground v.1.15,2013-05-13 14:14:00,
2013-05-13 10:20:00,41.5,25.6,30.16,NW,309,7.0,13.0,53,0.00,,,0.00,976,Wunderground v.1.15,2013-05-13 14:20:00,
2013-05-13 10:26:00,43.0,25.1,30.16,WNW,288,8.0,13.0,49,0.00,,,0.00,911,Wunderground v.1.15,2013-05-13 14:26:00,
2013-05-13 10:32:00,42.9,26.9,30.15,North,349,7.0,8.0,53,0.00,,,0.00,986,Wunderground v.1.15,2013-05-13 14:32:00,
2013-05-13 10:38:00,43.8,26.3,30.16,West,262,6.0,11.0,50,0.00,,,0.00,264,Wunderground v.1.15,2013-05-13 14:38:00,
2013-05-13 10:44:00,44.4,27.4,30.15,WNW,296,5.0,6.0,51,0.00,,,0.00,1097,Wunderground v.1.15,2013-05-13 14:44:00,
2013-05-13 10:50:00,44.6,25.1,30.15,NNW,327,6.0,9.0,46,0.00,,,0.00,469,Wunderground v.1.15,2013-05-13 14:50:00,
2013-05-13 10:56:00,43.2,23.8,30.16,NW,310,8.0,12.0,46,0.00,,,0.00,1127,Wunderground v.1.15,2013-05-13 14:56:00,
2013-05-13 11:02:00,42.9,26.0,30.16,West,277,8.0,12.0,51,0.00,,,0.00,1046,Wunderground v.1.15,2013-05-13 15:02:00,
2013-05-13 11:08:00,43.8,26.3,30.16,NNW,337,7.0,12.0,50,0.00,,,0.00,232,Wunderground v.1.15,2013-05-13 15:08:00,
2013-05-13 11:14:00,42.9,25.0,30.16,NW,304,6.0,9.0,49,0.00,,,0.00,190,Wunderground v.1.15,2013-05-13 15:14:00,
2013-05-13 11:20:00,42.0,25.6,30.16,WSW,252,6.0,6.0,52,0.00,,,0.00,253,Wunderground v.1.15,2013-05-13 15:20:00,
2013-05-13 11:26:00,42.3,26.8,30.17,WSW,238,5.0,12.0,54,0.00,,,0.00,420,Wunderground v.1.15,2013-05-13 15:26:00,
2013-05-13 11:32:00,43.0,27.5,30.17,NW,304,5.0,7.0,54,0.00,,,0.00,438,Wunderground v.1.15,2013-05-13 15:32:00,
2013-05-13 11:38:00,43.1,27.1,30.17,WNW,298,5.0,7.0,53,0.00,,,0.00,220,Wunderground v.1.15,2013-05-13 15:38:00,
2013-05-13 11:44:00,42.7,25.8,30.17,West,269,5.0,10.0,51,0.00,,,0.00,250,Wunderground v.1.15,2013-05-13 15:44:00,
2013-05-13 11:50:00,42.4,26.9,30.18,WSW,244,7.0,7.0,54,0.00,,,0.00,454,Wunderground v.1.15,2013-05-13 15:50:00,
2013-05-13 11:56:00,42.7,27.2,30.18,NW,313,7.0,8.0,54,0.00,,,0.00,446,Wunderground v.1.15,2013-05-13 15:56:00,
2013-05-13 12:02:00,42.7,26.3,30.18,WSW,253,7.0,7.0,52,0.00,,,0.00,420,Wunderground v.1.15,2013-05-13 16:02:00,
2013-05-13 12:08:00,43.4,26.9,30.18,NNW,347,6.0,7.0,52,0.00,,,0.00,480,Wunderground v.1.15,2013-05-13 16:08:00,
2013-05-13 12:14:00,44.1,28.0,30.17,West,280,5.0,16.0,53,0.00,,,0.00,541,Wunderground v.1.15,2013-05-13 16:14:00,
2013-05-13 12:20:00,44.2,25.2,30.17,NW,315,5.0,8.0,47,0.00,,,0.00,573,Wunderground v.1.15,2013-05-13 16:20:00,
2013-05-13 12:26:00,44.3,26.3,30.17,NNW,339,5.0,8.0,49,0.00,,,0.00,334,Wunderground v.1.15,2013-05-13 16:26:00,
2013-05-13 12:32:00,44.4,25.9,30.17,NW,315,5.0,8.0,48,0.00,,,0.00,438,Wunderground v.1.15,2013-05-13 16:32:00,
2013-05-13 12:38:00,44.1,26.6,30.17,WSW,258,7.0,9.0,50,0.00,,,0.00,504,Wunderground v.1.15,2013-05-13 16:38:00,
2013-05-13 12:44:00,44.6,27.6,30.17,WNW,292,7.0,7.0,51,0.00,,,0.00,638,Wunderground v.1.15,2013-05-13 16:44:00,
2013-05-13 12:50:00,44.9,28.8,30.17,WNW,286,5.0,7.0,53,0.00,,,0.00,404,Wunderground v.1.15,2013-05-13 16:50:00,
2013-05-13 12:56:00,44.9,26.9,30.17,WSW,245,4.0,7.0,49,0.00,,,0.00,348,Wunderground v.1.15,2013-05-13 16:56:00,
2013-05-13 13:02:00,44.6,26.6,30.17,West,269,5.0,9.0,49,0.00,,,0.00,355,Wunderground v.1.15,2013-05-13 17:02:00,
2013-05-13 13:08:00,44.5,26.5,30.17,NW,313,5.0,9.0,49,0.00,,,0.00,427,Wunderground v.1.15,2013-05-13 17:08:00,
2013-05-13 13:14:00,44.9,26.4,30.17,WNW,295,5.0,9.0,48,0.00,,,0.00,496,Wunderground v.1.15,2013-05-13 17:14:00,
2013-05-13 13:20:00,45.5,27.9,30.17,West,279,7.0,8.0,50,0.00,,,0.00,564,Wunderground v.1.15,2013-05-13 17:20:00,
2013-05-13 13:26:00,45.2,27.2,30.17,WNW,284,6.0,9.0,49,0.00,,,0.00,330,Wunderground v.1.15,2013-05-13 17:26:00,
2013-05-13 13:32:00,45.1,26.6,30.16,NW,319,6.0,6.0,48,0.00,,,0.00,309,Wunderground v.1.15,2013-05-13 17:32:00,
2013-05-13 13:38:00,45.4,28.3,30.17,WSW,240,5.0,6.0,51,0.00,,,0.00,309,Wunderground v.1.15,2013-05-13 17:38:00,
2013-05-13 13:44:00,45.0,27.0,30.16,WNW,302,5.0,9.0,49,0.00,,,0.00,424,Wunderground v.1.15,2013-05-13 17:44:00,
2013-05-13 13:50:00,46.0,27.9,30.16,NW,305,6.0,6.0,49,0.00,,,0.00,411,Wunderground v.1.15,2013-05-13 17:50:00,
2013-05-13 13:56:00,46.0,26.9,30.16,WNW,300,5.0,11.0,47,0.00,,,0.00,316,Wunderground v.1.15,2013-05-13 17:56:00,
2013-05-13 14:02:00,45.4,27.3,30.16,WNW,298,6.0,6.0,49,0.00,,,0.00,350,Wunderground v.1.15,2013-05-13 18:02:00,
2013-05-13 14:08:00,46.0,27.9,30.16,WNW,286,5.0,8.0,49,0.00,,,0.00,540,Wunderground v.1.15,2013-05-13 18:08:00,
2013-05-13 14:14:00,46.5,27.8,30.16,NW,309,6.0,8.0,48,0.00,,,0.00,529,Wunderground v.1.15,2013-05-13 18:14:00,
2013-05-13 14:20:00,46.5,28.3,30.16,WSW,246,5.0,10.0,49,0.00,,,0.00,413,Wunderground v.1.15,2013-05-13 18:20:00,
2013-05-13 14:26:00,46.5,28.3,30.16,WNW,285,6.0,10.0,49,0.00,,,0.00,390,Wunderground v.1.15,2013-05-13 18:26:00,
2013-05-13 14:32:00,46.2,27.6,30.17,WNW,288,6.0,13.0,48,0.00,,,0.00,371,Wunderground v.1.15,2013-05-13 18:32:00,
2013-05-13 14:38:00,46.1,27.0,30.16,West,279,7.0,13.0,47,0.00,,,0.00,497,Wunderground v.1.15,2013-05-13 18:38:00,
2013-05-13 14:44:00,46.2,27.1,30.16,West,265,6.0,7.0,47,0.00,,,0.00,352,Wunderground v.1.15,2013-05-13 18:44:00,
2013-05-13 14:50:00,46.7,28.0,30.16,NW,318,5.0,5.0,48,0.00,,,0.00,320,Wunderground v.1.15,2013-05-13 18:50:00,
2013-05-13 14:56:00,46.3,25.6,30.16,West,281,5.0,8.0,44,0.00,,,0.00,417,Wunderground v.1.15,2013-05-13 18:56:00,
2013-05-13 15:02:00,46.5,26.3,30.16,WSW,244,6.0,7.0,45,0.00,,,0.00,292,Wunderground v.1.15,2013-05-13 19:02:00,
2013-05-13 15:08:00,46.5,25.2,30.16,NW,304,5.0,7.0,43,0.00,,,0.00,287,Wunderground v.1.15,2013-05-13 19:08:00,
2013-05-13 15:14:00,46.5,26.3,30.16,WNW,301,5.0,9.0,45,0.00,,,0.00,285,Wunderground v.1.15,2013-05-13 19:14:00,
2013-05-13 15:20:00,46.4,26.2,30.16,NW,313,5.0,9.0,45,0.00,,,0.00,267,Wunderground v.1.15,2013-05-13 19:20:00,
2013-05-13 15:26:00,46.9,26.1,30.16,NNW,338,3.0,9.0,44,0.00,,,0.00,276,Wunderground v.1.15,2013-05-13 19:26:00,
2013-05-13 15:32:00,47.0,26.2,30.16,NNW,336,4.0,10.0,44,0.00,,,0.00,338,Wunderground v.1.15,2013-05-13 19:32:00,
2013-05-13 15:38:00,47.1,27.4,30.16,NW,325,6.0,10.0,46,0.00,,,0.00,323,Wunderground v.1.15,2013-05-13 19:38:00,
2013-05-13 15:44:00,47.2,26.9,30.16,WSW,257,6.0,10.0,45,0.00,,,0.00,332,Wunderground v.1.15,2013-05-13 19:44:00,
2013-05-13 15:50:00,47.2,26.9,30.15,WNW,296,6.0,6.0,45,0.00,,,0.00,283,Wunderground v.1.15,2013-05-13 19:50:00,
2013-05-13 15:56:00,47.0,25.6,30.15,WSW,255,5.0,7.0,43,0.00,,,0.00,237,Wunderground v.1.15,2013-05-13 19:56:00,
2013-05-13 16:02:00,47.0,26.2,30.15,SW,219,6.0,6.0,44,0.00,,,0.00,290,Wunderground v.1.15,2013-05-13 20:02:00,
2013-05-13 16:08:00,47.0,25.6,30.15,West,268,6.0,11.0,43,0.00,,,0.00,264,Wunderground v.1.15,2013-05-13 20:08:00,
2013-05-13 16:14:00,47.0,26.7,30.15,NW,309,6.0,7.0,45,0.00,,,0.00,264,Wunderground v.1.15,2013-05-13 20:14:00,
2013-05-13 16:20:00,47.3,27.0,30.16,WSW,251,5.0,7.0,45,0.00,,,0.00,387,Wunderground v.1.15,2013-05-13 20:20:00,
2013-05-13 16:26:00,47.0,24.5,30.15,West,281,5.0,7.0,41,0.00,,,0.00,209,Wunderground v.1.15,2013-05-13 20:26:00,
2013-05-13 16:32:00,46.9,25.5,30.15,NNW,343,5.0,5.0,43,0.00,,,0.00,237,Wunderground v.1.15,2013-05-13 20:32:00,
2013-05-13 16:38:00,47.1,25.7,30.15,WNW,292,6.0,12.0,43,0.00,,,0.00,246,Wunderground v.1.15,2013-05-13 20:38:00,
2013-05-13 16:44:00,46.9,26.6,30.16,NW,321,6.0,8.0,45,0.00,,,0.00,153,Wunderground v.1.15,2013-05-13 20:44:00,
2013-05-13 16:50:00,46.6,26.4,30.16,WNW,300,6.0,11.0,45,0.00,,,0.00,171,Wunderground v.1.15,2013-05-13 20:50:00,
2013-05-13 16:56:00,46.7,26.5,30.16,North,355,5.0,11.0,45,0.00,,,0.00,223,Wunderground v.1.15,2013-05-13 20:56:00,
2013-05-13 17:02:00,47.0,27.8,30.16,NW,319,4.0,5.0,47,0.00,,,0.00,285,Wunderground v.1.15,2013-05-13 21:02:00,
2013-05-13 17:08:00,47.2,26.9,30.16,North,9,4.0,13.0,45,0.00,,,0.00,257,Wunderground v.1.15,2013-05-13 21:08:00,
2013-05-13 17:14:00,46.9,26.6,30.15,WNW,293,7.0,10.0,45,0.00,,,0.00,276,Wunderground v.1.15,2013-05-13 21:14:00,
2013-05-13 17:20:00,46.9,26.1,30.16,WNW,300,6.0,10.0,44,0.00,,,0.00,236,Wunderground v.1.15,2013-05-13 21:20:00,
2013-05-13 17:26:00,46.9,27.2,30.16,NNW,336,5.0,10.0,46,0.00,,,0.00,323,Wunderground v.1.15,2013-05-13 21:26:00,
2013-05-13 17:32:00,47.7,26.8,30.16,West,271,5.0,5.0,44,0.00,,,0.00,686,Wunderground v.1.15,2013-05-13 21:32:00,
2013-05-13 17:38:00,48.0,27.1,30.16,WSW,240,6.0,8.0,44,0.00,,,0.00,313,Wunderground v.1.15,2013-05-13 21:38:00,
2013-05-13 17:44:00,47.8,28.0,30.16,West,279,5.0,6.0,46,0.00,,,0.00,237,Wunderground v.1.15,2013-05-13 21:44:00,
2013-05-13 17:50:00,47.3,27.5,30.16,NW,315,5.0,5.0,46,0.00,,,0.00,178,Wunderground v.1.15,2013-05-13 21:50:00,
2013-05-13 17:56:00,46.7,28.0,30.16,NW,315,4.0,6.0,48,0.00,,,0.00,213,Wunderground v.1.15,2013-05-13 21:56:00,
2013-05-13 18:02:00,47.0,26.7,30.16,WNW,296,5.0,9.0,45,0.00,,,0.00,374,Wunderground v.1.15,2013-05-13 22:02:00,
2013-05-13 18:08:00,47.2,27.5,30.16,NNE,24,6.0,9.0,46,0.00,,,0.00,167,Wunderground v.1.15,2013-05-13 22:08:00,
2013-05-13 18:14:00,46.7,26.5,30.16,West,267,5.0,7.0,45,0.00,,,0.00,139,Wunderground v.1.15,2013-05-13 22:14:00,
2013-05-13 18:20:00,47.2,26.9,30.16,ENE,57,5.0,5.0,45,0.00,,,0.00,371,Wunderground v.1.15,2013-05-13 22:20:00,
2013-05-13 18:26:00,46.7,27.5,30.16,West,267,4.0,8.0,47,0.00,,,0.00,95,Wunderground v.1.15,2013-05-13 22:26:00,
2013-05-13 18:32:00,46.4,26.7,30.16,WSW,258,5.0,10.0,46,0.00,,,0.00,169,Wunderground v.1.15,2013-05-13 22:32:00,
2013-05-13 18:38:00,46.8,27.1,30.16,WNW,294,5.0,10.0,46,0.00,,,0.00,350,Wunderground v.1.15,2013-05-13 22:38:00,
2013-05-13 18:44:00,46.8,26.0,30.16,NNW,342,5.0,6.0,44,0.00,,,0.00,308,Wunderground v.1.15,2013-05-13 22:44:00,
2013-05-13 18:50:00,46.7,27.0,30.16,NW,325,5.0,5.0,46,0.00,,,0.00,260,Wunderground v.1.15,2013-05-13 22:50:00,
2013-05-13 18:56:00,46.6,26.9,30.17,NW,310,5.0,10.0,46,0.00,,,0.00,214,Wunderground v.1.15,2013-05-13 22:56:00,
2013-05-13 19:02:00,46.5,26.8,30.17,NW,307,4.0,6.0,46,0.00,,,0.00,58,Wunderground v.1.15,2013-05-13 23:02:00,
2013-05-13 19:08:00,45.7,26.6,30.17,West,272,4.0,7.0,47,0.00,,,0.00,56,Wunderground v.1.15,2013-05-13 23:08:00,
2013-05-13 19:14:00,45.4,26.8,30.17,West,272,5.0,6.0,48,0.00,,,0.00,53,Wunderground v.1.15,2013-05-13 23:14:00,
2013-05-13 19:20:00,45.2,26.7,30.17,WNW,297,4.0,4.0,48,0.00,,,0.00,77,Wunderground v.1.15,2013-05-13 23:20:00,
2013-05-13 19:26:00,45.3,26.2,30.17,NW,312,4.0,7.0,47,0.00,,,0.00,63,Wunderground v.1.15,2013-05-13 23:26:00,
2013-05-13 19:32:00,45.1,26.6,30.17,NW,306,5.0,5.0,48,0.00,,,0.00,33,Wunderground v.1.15,2013-05-13 23:32:00,
2013-05-13 19:38:00,44.7,26.2,30.17,NNW,332,4.0,5.0,48,0.00,,,0.00,25,Wunderground v.1.15,2013-05-13 23:38:00,
2013-05-13 19:44:00,44.3,26.8,30.18,NW,309,2.0,5.0,50,0.00,,,0.00,33,Wunderground v.1.15,2013-05-13 23:44:00,
2013-05-13 19:50:00,44.0,26.5,30.18,NW,325,1.0,1.0,50,0.00,,,0.00,39,Wunderground v.1.15,2013-05-13 23:50:00,
2013-05-13 19:56:00,43.9,27.4,30.18,WNW,303,1.0,7.0,52,0.00,,,0.00,28,Wunderground v.1.15,2013-05-13 23:56:00,
2013-05-13 20:02:00,43.7,26.3,30.18,NE,44,2.0,5.0,50,0.00,,,0.00,16,Wunderground v.1.15,2013-05-14 00:02:00,
2013-05-13 20:08:00,43.4,26.5,30.18,NNE,17,1.0,5.0,51,0.00,,,0.00,12,Wunderground v.1.15,2013-05-14 00:08:00,
2013-05-13 20:14:00,42.9,26.5,30.18,NNW,331,1.0,5.0,52,0.00,,,0.00,9,Wunderground v.1.15,2013-05-14 00:14:00,
2013-05-13 20:20:00,42.5,26.6,30.19,NE,42,0.0,5.0,53,0.00,,,0.00,5,Wunderground v.1.15,2013-05-14 00:20:00,
2013-05-13 20:26:00,42.1,26.2,30.19,NNW,328,1.0,5.0,53,0.00,,,0.00,0,Wunderground v.1.15,2013-05-14 00:26:00,
2013-05-13 20:32:00,42.0,25.6,30.19,NW,308,1.0,5.0,52,0.00,,,0.00,0,Wunderground v.1.15,2013-05-14 00:32:00,
2013-05-13 20:38:00,41.6,25.3,30.20,NW,313,1.0,5.0,52,0.00,,,0.00,0,Wunderground v.1.15,2013-05-14 00:38:00,
2013-05-13 20:44:00,41.1,25.7,30.20,NW,313,1.0,5.0,54,0.00,,,0.00,0,Wunderground v.1.15,2013-05-14 00:44:00,
2013-05-13 20:50:00,40.6,25.7,30.20,NW,313,0.0,5.0,55,0.00,,,0.00,0,Wunderground v.1.15,2013-05-14 00:50:00,
2013-05-13 20:56:00,40.1,25.6,30.20,NW,313,0.0,5.0,56,0.00,,,0.00,0,Wunderground v.1.15,2013-05-14 00:56:00,
2013-05-13 21:02:00,39.4,26.7,30.20,NW,313,0.0,5.0,60,0.00,,,0.00,0,Wunderground v.1.15,2013-05-14 01:02:00,
2013-05-13 21:08:00,38.8,26.9,30.21,NW,313,0.0,5.0,62,0.00,,,0.00,0,Wunderground v.1.15,2013-05-14 01:08:00,
2013-05-13 21:14:00,38.1,26.6,30.21,NW,313,0.0,5.0,63,0.00,,,0.00,0,Wunderground v.1.15,2013-05-14 01:14:00,
2013-05-13 21:20:00,37.5,27.2,30.21,NW,313,0.0,5.0,66,0.00,,,0.00,0,Wunderground v.1.15,2013-05-14 01:20:00,
2013-05-13 21:26:00,36.8,26.9,30.21,NW,313,0.0,5.0,67,0.00,,,0.00,0,Wunderground v.1.15,2013-05-14 01:26:00,
2013-05-13 21:32:00,36.1,26.9,30.21,NW,313,0.0,5.0,69,0.00,,,0.00,0,Wunderground v.1.15,2013-05-14 01:32:00,
2013-05-13 21:38:00,35.7,26.9,30.22,NW,313,0.0,5.0,70,0.00,,,0.00,0,Wunderground v.1.15,2013-05-14 01:38:00,
2013-05-13 21:44:00,35.2,27.1,30.22,NW,313,0.0,5.0,72,0.00,,,0.00,0,Wunderground v.1.15,2013-05-14 01:44:00,
2013-05-13 21:50:00,34.6,27.2,30.22,NW,313,0.0,5.0,74,0.00,,,0.00,0,Wunderground v.1.15,2013-05-14 01:50:00,
2013-05-13 21:56:00,34.3,26.9,30.22,NW,313,0.0,5.0,74,0.00,,,0.00,0,Wunderground v.1.15,2013-05-14 01:56:00,
2013-05-13 22:02:00,34.0,26.9,30.23,NW,313,0.0,5.0,75,0.00,,,0.00,0,Wunderground v.1.15,2013-05-14 02:02:00,
2013-05-13 22:08:00,33.7,26.3,30.23,NW,313,0.0,5.0,74,0.00,,,0.00,0,Wunderground v.1.15,2013-05-14 02:08:00,
2013-05-13 22:14:00,33.3,26.5,30.23,NW,313,0.0,5.0,76,0.00,,,0.00,0,Wunderground v.1.15,2013-05-14 02:14:00,
2013-05-13 22:20:00,33.0,26.6,30.23,NW,313,0.0,5.0,77,0.00,,,0.00,0,Wunderground v.1.15,2013-05-14 02:20:00,
2013-05-13 22:26:00,32.6,26.5,30.23,NW,313,0.0,5.0,78,0.00,,,0.00,0,Wunderground v.1.15,2013-05-14 02:26:00,
2013-05-13 22:32:00,32.0,26.8,30.23,NW,313,0.0,5.0,81,0.00,,,0.00,0,Wunderground v.1.15,2013-05-14 02:32:00,
2013-05-13 22:38:00,31.5,26.3,30.23,NW,313,0.0,5.0,81,0.00,,,0.00,0,Wunderground v.1.15,2013-05-14 02:38:00,
2013-05-13 22:44:00,31.2,26.3,30.23,NW,313,0.0,5.0,82,0.00,,,0.00,0,Wunderground v.1.15,2013-05-14 02:44:00,
2013-05-13 22:50:00,31.2,26.6,30.23,NW,313,0.0,5.0,83,0.00,,,0.00,0,Wunderground v.1.15,2013-05-14 02:50:00,
2013-05-13 22:56:00,31.1,26.5,30.23,NW,313,0.0,5.0,83,0.00,,,0.00,0,Wunderground v.1.15,2013-05-14 02:56:00,
2013-05-13 23:02:00,30.8,26.2,30.23,NW,313,0.0,5.0,83,0.00,,,0.00,0,Wunderground v.1.15,2013-05-14 03:02:00,
2013-05-13 23:08:00,30.9,26.3,30.23,NW,313,0.0,5.0,83,0.00,,,0.00,0,Wunderground v.1.15,2013-05-14 03:08:00,
2013-05-13 23:14:00,31.0,26.4,30.23,NW,314,1.0,5.0,83,0.00,,,0.00,0,Wunderground v.1.15,2013-05-14 03:14:00,
2013-05-13 23:20:00,31.0,26.1,30.23,NW,314,1.0,1.0,82,0.00,,,0.00,0,Wunderground v.1.15,2013-05-14 03:20:00,
2013-05-13 23:26:00,30.8,26.2,30.24,NW,315,1.0,5.0,83,0.00,,,0.00,0,Wunderground v.1.15,2013-05-14 03:26:00,
2013-05-13 23:32:00,30.7,26.1,30.24,NW,306,2.0,5.0,83,0.00,,,0.00,0,Wunderground v.1.15,2013-05-14 03:32:00,
2013-05-13 23:38:00,30.6,26.1,30.24,NW,306,1.0,5.0,83,0.00,,,0.00,0,Wunderground v.1.15,2013-05-14 03:38:00,
2013-05-13 23:44:00,30.3,25.8,30.24,NW,306,0.0,5.0,83,0.00,,,0.00,0,Wunderground v.1.15,2013-05-14 03:44:00,
2013-05-13 23:50:00,29.6,25.6,30.23,NW,306,0.0,5.0,85,0.00,,,0.00,0,Wunderground v.1.15,2013-05-14 03:50:00,
2013-05-13 23:56:00,29.5,25.8,30.23,NW,306,0.0,5.0,86,0.00,,,0.00,0,Wunderground v.1.15,2013-05-14 03:56:00,